Location: Bessat
(45.8735°N, 1.9924°E)
Time: 03:29:15
(UTC+00:00)

Meteor 1-5 Rocket - Pass Details

Date: 11 May 2021
Orbit: 788 x 916 km, 81.2° (Epoch: 14 June)

Event Time Altitude Azimuth Distance (km) Brightness Sun altitude
Rises 20:57:34 0° 350° (N) 3,351 8.4 -15.3°
Reaches altitude 10° 21:00:00 10° 352° (N) 2,400 7.4 -15.5°
Maximum altitude 21:05:24 77° 78° (ENE) 820 4.0 -16.1°
Enters shadow 21:08:33 25° 162° (SSE) 1,551 5.0 -16.5°
